Flag for Germany Weather past 2 weeks in Gladbeck, North Rhine-Westphalia, Germany

Now
37 °F

Passing clouds.


Feels Like: 31 °F
Forecast: 36 / 44 °F
Wind: 7 mph from Southwest

Location: Duesseldorf

Current Time: Mar 3, 2015 at 5:20:37 AM

Latest Report: Mar 3, 2015 at 5:00 AM


Visibility: 19 mi

Pressure: 30.05 "Hg

Humidity: 83%

Dew point: 32 °F

Location of GladbeckLocation

Historic Weather in Gladbeck — Graph

°F

Gladbeck temperature yesterday

Maximum temperature yesterday: 48 °F (at 2:00 PM)
Minimum temperature yesterday: 38 °F (at 4:00 PM)
Average temperature yesterday: 42 °F

Past Weeks' High & Low Weather Summary

 TemperatureHumidityPressure
High52 °F (Mar 1, 1:00 PM)100% (Feb 18, 7:00 AM)30.78 "Hg (Feb 18, 7:00 AM)
Low28 °F (Feb 28, 5:00 AM)47% (Mar 2, 2:00 PM)29.35 "Hg (Feb 21, 5:00 AM)
Average40 °F82%29.95 "Hg
* Reported Feb 16 3:00 AM — Mar 3 3:00 AM, Gladbeck, Weather by CustomWeather, © 2015

Note: Actual official high and low records may vary slightly from our data, if they occured in-between our weather recording intervals... More about our weather records

Advertising

Gladbeck weather history for previous 24 hours

 ConditionsComfort  
Time TempWeatherWind HumidityBarometerVisibility
3:00 AM
Tue, Mar 3
36 °FClear.6 mph81%30.05 "Hg19 mi
2:00 AM37 °FPassing clouds.7 mph77%30.03 "Hg25 mi
1:00 AM39 °FPassing clouds.8 mph72%30.02 "Hg25 mi
12:00 AM39 °FPassing clouds.8 mph71%29.99 "Hg25 mi
11:00 PM
Mon, Mar 2
39 °FPassing clouds.7 mph67%29.97 "Hg25 mi
10:00 PM39 °FPassing clouds.6 mph67%29.93 "Hg25 mi
9:00 PM39 °FPassing clouds.8 mph72%29.91 "Hg22 mi
8:00 PM39 °FPassing clouds.5 mph73%29.87 "Hg22 mi
7:00 PM39 °FPassing clouds.6 mph81%29.84 "Hg12 mi
6:00 PM38 °FScattered clouds.6 mph85%29.81 "Hg12 mi
5:00 PM38 °FLow clouds.7 mph93%29.78 "Hg11 mi
4:00 PM38 °FRain showers. Low clouds.10 mph91%29.74 "Hg6 mi
3:00 PM47 °FOvercast.8 mph50%29.70 "Hg22 mi
2:00 PM48 °FPartly sunny.9 mph47%29.70 "Hg31 mi
1:00 PM48 °FPartly sunny.9 mph49%29.71 "Hg31 mi
12:00 PM46 °FPassing clouds.9 mph53%29.70 "Hg31 mi
11:00 AM45 °FPassing clouds.9 mph61%29.69 "Hg31 mi
10:00 AM43 °FPassing clouds.8 mph65%29.68 "Hg31 mi
9:00 AM41 °FPassing clouds.5 mph68%29.66 "Hg31 mi
8:00 AM40 °FPassing clouds.5 mph73%29.63 "Hg25 mi
7:00 AM41 °FPassing clouds.6 mph70%29.60 "Hg22 mi
6:00 AM41 °FPassing clouds.6 mph72%29.59 "Hg31 mi
5:00 AM42 °FPassing clouds.8 mph69%29.57 "Hg28 mi
Weather by CustomWeather, © 2015

See weather overviewHow to use our weather pages